Погода в Лизьё

Франция     49°09′06″N   0°13′42″E
темп.,
°C
ветер,
м/с
пор.,
м/с
влажн.,
%
обл.,
%
осадки,
мм/ч
давл.,
гПа
погр.,
м
30 июня, чт
чт3023:00+13ю5129446 1.3 1012376
02:00+10юз3796100 1.3 1013137
05:00+9ююз2497100 0.0 101381
08:00+11ююз3594100 0.0 1013182
11:00+14ююз3481100 0.1 1013523
14:00+17юз355787 0.5 10131517
17:00+12зсз36885 1.8 1014279
20:00+14зюз358494 2.7 1014286
1 июля, пт
пт123:00+10зюз35895 0.1 101671
02:00+8юз36951 0.1 1017102
05:00+8юз389715 0.0 1018161
08:00+10юз499610 0.0 1019258
11:00+17зюз565921 0.1 10201291
14:00+19зсз665295 0.1 10201442
17:00+21сз56405 0.0 10191692
20:00+18ссз45521 0.0 1020523
2 июля, сб
сб223:00+12ссв228724 0.0 102211
02:00+10вюв22885 0.0 102215
05:00+10вюв22870 0.0 102110
08:00+13юв23720 0.0 1021142
11:00+21зюз34467 0.0 1021914
14:00+24з4633100 0.0 10191851
17:00+22сз66415 0.0 1019735
20:00+19ссз58550 0.0 1020467
3 июля, вс
вс323:00+12ссз22900 0.0 102120
02:00+12з2295100 0.0 102123
05:00+10зюз23951 0.0 102250
08:00+12зюз249021 0.0 1022174
11:00+18зсз44590 0.0 1022967
14:00+21сз45470 0.0 10221181
17:00+21сз55473 0.0 10221043
20:00+18сз465999 0.0 1022433
4 июля, пн
пн423:00+12ссз22900 0.0 102321
02:00+11ссз11900 0.0 102310
05:00+11сз11920 0.0 102210
08:00+14ссв12864 0.0 1021123
11:00+21зсз115199 0.0 1021953
14:00+24сз4337100 0.0 10201488
17:00+22ссз5440100 0.0 1020610
20:00+20ссз564583 0.0 1019466